Regional Weather Roundup
Issued by NWS

Home | Current Version | Previous Version | Graphics & Text | Print | Product List | Glossary On
Versions: 1 2 3 4 5 6 7 8 9 10 11 12 13 14 15 16 17 18 19 20 21 22 23 24 25 26 27 28 29 30 31 32 33 34 35 36 37 38 39 40 41 42 43 44 45 46 47 48 49 50
000
ASUS43 KOAX 160802
RWRNE

WEATHER ROUNDUP FOR NEBRASKA
NATIONAL WEATHER SERVICE OMAHA NE
300 AM CDT WED APR 16 2014

NOTES: SATELLITE DATA IS BEING USED TO AUGMENT CLOUD COVER ABOVE
       12000 FEET.
       "FAIR" INDICATES FEW OR NO CLOUDS BELOW 12,000 FEET WITH NO
       SIGNIFICANT WEATHER AND/OR OBSTRUCTIONS TO VISIBILITY.

  * THESE STATIONS DO NOT REPORT WEATHER SUCH AS RAIN...SNOW OR FOG.

NEZ001>004-019>022-054>056-160900-
NEBRASKA PANHANDLE

CITY           SKY/WX    TMP DP  RH WIND       PRES   REMARKS
SCOTTSBLUFF    CLOUDY    51  33  50 W23G40    29.61R
ALLIANCE       CLOUDY    53  28  38 W25G35    29.57F
CHADRON        MOCLDY    46  38  73 N10       29.62R
KIMBALL        CLOUDY    46  30  53 W33G40    29.66F
SIDNEY         CLOUDY    49  30  48 W28G33    29.65R
$$

NEZ057>060-069>072-079>082-160900-
SOUTHWEST NEBRASKA

CITY           SKY/WX    TMP DP  RH WIND       PRES   REMARKS
NORTH PLATTE   CLOUDY    48  27  44 S9        29.57F
IMPERIAL       CLOUDY    42  28  57 S7        29.58F
LEXINGTON      CLOUDY    48  27  45 S16G22    29.60F
MCCOOK         CLOUDY    48  24  39 S16G23    29.59F
OGALLALA       CLOUDY    52  27  38 W12       29.61S
$$

NEZ005>010-023>029-035>040-094-160900-
NORTH CENTRAL NEBRASKA

CITY           SKY/WX    TMP DP  RH WIND       PRES   REMARKS
VALENTINE      CLOUDY    57  29  34 W16       29.49F
AINSWORTH      CLOUDY    53  28  39 S14       29.51F
BROKEN BOW     MOCLDY    46  27  47 S12       29.58F
O`NEILL        CLOUDY    52  25  35 SW10      29.57S
ORD            MOCLDY    47  25  42 SW20      29.59F
THEDFORD       CLOUDY    56  25  31 SW14G20   29.57S
$$

NEZ041-046>049-061>064-073>077-083>087-160900-
SOUTH CENTRAL NEBRASKA

CITY           SKY/WX    TMP DP  RH WIND       PRES   REMARKS
GRAND ISLAND   PTCLDY    48  23  37 S21G31    29.65F
AURORA         MOCLDY    47  23  38 S20       29.67F
HASTINGS       PTCLDY    48  22  35 S15G23    29.67F
HEBRON         PTCLDY    48  17  28 S21G29    29.74F
HOLDREGE       MOCLDY    44  26  47 S15       29.64F
KEARNEY *      MOCLDY    45  25  45 S20G25    29.64F
YORK           MOCLDY    46  23  39 S21G29    29.70F
$$

NEZ011>018-030>034-042>045-160900-
NORTHEAST NEBRASKA

CITY           SKY/WX    TMP DP  RH WIND       PRES   REMARKS
NORFOLK        CLOUDY    49  23  36 S20G31    29.63F
ALBION         CLOUDY    47  24  41 S18G25    29.63F
BLAIR          MOCLDY    45  29  53 S24G33    29.76F
COLUMBUS *     CLOUDY    48  21  34 S23G31    29.68F
FREMONT        CLOUDY    47  25  42 S21G28    29.73F
TEKAMAH        CLOUDY    48  29  47 S23       29.75F
$$

NEZ050>053-065>068-078-088>093-160900-
SOUTHEAST NEBRASKA

CITY           SKY/WX    TMP DP  RH WIND       PRES   REMARKS
LINCOLN        PTCLDY    49  22  34 S24G37    29.75F
OMAHA EPPLEY   CLOUDY    46  29  51 S22G35    29.79F
BEATRICE       CLEAR     47  24  39 S22G28    29.78F
FALLS CITY     CLEAR     46  29  51 S18       29.87F
NEBRASKA CITY  CLEAR     44  30  57 S16G24    29.83F
PLATTSMOUTH    PTCLDY    44  29  54 S18G25    29.80F
$$

NEZ044-045-051>053-067-160900-
OMAHA AREA

CITY           SKY/WX    TMP DP  RH WIND       PRES   REMARKS
OMAHA EPPLEY   CLOUDY    46  29  51 S22G35    29.79F
BLAIR          MOCLDY    45  29  53 S24G33    29.76F
FREMONT        CLOUDY    47  25  42 S21G28    29.73F
MILLARD        MOCLDY    45  29  55 SE12      29.79F
OFFUTT AFB     MOCLDY    44  32  63 SE14      29.81F
PLATTSMOUTH    PTCLDY    44  29  54 S18G25    29.80F
WAHOO          FAIR      46  24  40 SE14      29.75F
$$



USA.gov is the U.S. government's official web portal to all federal, state and local government web resources and services.